Regional Weather Roundup
Issued by NWS

Home | Current Version | Previous Version | Graphics & Text | Print | Product List | Glossary On
Versions: 1 2 3 4 5 6 7 8 9 10 11 12 13 14 15 16 17 18 19 20 21 22 23 24 25 26 27 28 29 30 31 32 33 34 35 36 37 38 39 40 41 42 43 44 45 46 47 48 49 50
000
ASUS45 KABQ 270601
RWRNM
NEW MEXICO REGIONAL WEATHER ROUNDUP
NATIONAL WEATHER SERVICE ALBUQUERQUE NM
1200 AM MDT MON MAR 27 2017

NOTE: "FAIR" MEANS FEW OR NO CLOUDS BELOW 12,000 FEET AGL WITH NO
       SIGNIFICANT WEATHER OR OBSTRUCTIONS TO VISION.

      THIS PRODUCT IS RELEASED AS TWO VERSIONS.  ONE VERSION NEAR
      THE TOP OF THE HOUR CONTAINING PRELIMINARY DATA FROM ALBUQUERQUE
      AND OTHER STATIONS.  A FINAL VERSION WITH ADDITIONAL DATA IS
      ISSUED ABOUT 10 MINUTES AFTER THE HOUR.

NMZ501-503-504-510>518-270700-
NORTHWEST PLATEAU/NORTHCENTRAL MOUNTAINS

CITY           SKY/WX    TMP DP  RH WIND       PRES   REMARKS
FARMINGTON     FAIR      45  31  58 CALM      30.00R
6HR MIN TEMP:  44; 6HR MAX TEMP:  58;

LOS ALAMOS     FAIR      46  19  34 CALM      30.05S
SANTA FE       FAIR      41  25  53 N6        30.02R
6HR MIN TEMP:  39; 6HR MAX TEMP:  60;

TAOS             N/A     36  25  64 S8        30.04S WCI  29
ANGEL FIRE     FAIR      34  27  75 S6        30.07S WCI  29

$$
NMZ402-403-502-505>509-270700-
WESTCENTRAL MOUNTAINS/SOUTHWEST MOUNTAINS

CITY           SKY/WX    TMP DP  RH WIND       PRES   REMARKS
GALLUP         FAIR      35  26  69 NE6       30.06S WCI  30
6HR MIN TEMP:  33; 6HR MAX TEMP:  56;

GRANTS         FAIR      38  23  55 NW6       30.07S WCI  33
SILVER CITY    FAIR      43  19  39 NW8       30.05S

$$
NMZ407-409-411-412-270700-
SOUTHERN DESERTS

CITY           SKY/WX    TMP DP  RH WIND       PRES   REMARKS
DEMING         FAIR      51  20  29 W9        30.00R
6HR MIN TEMP:  51; 6HR MAX TEMP:  71;

LAS CRUCES     FAIR      54  16  22 W7        30.00R
HOLLOMAN AFB   FAIR      57  19  22 S8        30.00S
ALAMOGORDO     FAIR      59  18  20 CALM      29.98S
T OR C         FAIR      56  13  18 NW8       29.99S
6HR MIN TEMP:  54; 6HR MAX TEMP:  73;


$$
NMZ519>523-270700-
CENTRAL VALLEYS/CENTRAL HIGHLANDS

CITY           SKY/WX    TMP DP  RH WIND       PRES   REMARKS
ALBUQUERQUE    MOCLDY    52  25  35 NW5       30.02S
6HR MIN TEMP:  51; 6HR MAX TEMP:  66;

MORIARTY ARPT  FAIR      42  23  47 CALM      30.05R
6HR MIN TEMP:  34; 6HR MAX TEMP:  62;

CLINES CORNERS FAIR      40  21  46 NW6       30.07R
6HR MIN TEMP:  39; 6HR MAX TEMP:  56;

BELEN          FAIR      46  20  36 NE3       30.02S
6HR MIN TEMP:  44; 6HR MAX TEMP:  66;

SOCORRO        FAIR      55  15  20 NE7       30.00R
6HR MIN TEMP:  55; 6HR MAX TEMP:  69;


$$
NMZ524>526-539-540-270700-
SOUTHCENTRAL MOUNTAINS

CITY           SKY/WX    TMP DP  RH WIND       PRES   REMARKS
RUIDOSO        NOT AVBL

$$
NMZ527>531-270700-
NORTHEAST HIGHLANDS/NORTHEAST PLAINS

CITY           SKY/WX    TMP DP  RH WIND       PRES   REMARKS
LAS VEGAS      FAIR      36  28  73 SW6       30.03S WCI  31
6HR MIN TEMP:  36; 6HR MAX TEMP:  61;

RATON          FAIR      36  32  85 E5        29.99S WCI  32
6HR MIN TEMP:  36; 6HR MAX TEMP:  51;

CLAYTON        FAIR      36  36 100 N10       29.97F WCI  28
6HR MIN TEMP:  36; 6HR MAX TEMP:  56;


$$
NMZ532>537-270700-
EASTCENTRAL PLAINS

CITY           SKY/WX    TMP DP  RH WIND       PRES   REMARKS
TUCUMCARI      FAIR      43  33  68 E7        29.97R
6HR MIN TEMP:  43; 6HR MAX TEMP:  69;

CANNON AFB     FAIR      45  37  75 N14       29.96S
6HR MIN TEMP:  45; 6HR MAX TEMP:  68;

CLOVIS AIRPORT FAIR      43  34  70 N15       29.96F

$$
NMZ028-029-538-270700-
SOUTHEAST PLAINS

CITY           SKY/WX    TMP DP  RH WIND       PRES   REMARKS
ROSWELL        FAIR      56  14  19 W8          N/A
6HR MIN TEMP:  55; 6HR MAX TEMP:  77;

ARTESIA        FAIR      55  14  19 CALM      29.93R
CARLSBAD       FAIR      62  18  18 W16       29.90S
6HR MIN TEMP:  60; 6HR MAX TEMP:  77;

HOBBS          FAIR      48  14  25 SW3       29.95R


$$



USA.gov is the U.S. government's official web portal to all federal, state and local government web resources and services.